Other Public Products
Issued by NWS Charleston, SC

Current Version | Previous Version | Graphics & Text | Print | Product List | Glossary On
Versions: 1 2 3 4 5 6 7 8 9 10 11 12 13 14 15 16 17 18 19 20 21 22 23 24 25 26 27 28 29 30 31 32 33 34 35 36 37 38 39 40 41 42 43 44 45 46 47 48 49 50
220
FPUS82 KCHS 231612
OPUCHS

TEST...KCHS/KSAV Gateway Observations...TEST
National Weather Service Charleston SC
1200 PM EDT MON OCT 23 2017

NOTE: "fair" indicates few or no clouds below 12,000 feet with no
significant weather and/or obstructions to visibility.

SCZ050-WAZ558-NCZ071-TXZ119-213-PAZ071-DCZ001-FLZ074-172-MI076-
NYZ176-178-MAZ016-IL014-TNZ027-NJZ106-GAZ044-MD014-231700-

...Gateway Observations for Charleston International...

CITY           SKY/WX    TMP DP  RH WIND       PRES   REMARKS
Chas Airport   CLOUDY    77  74  90 SE13      30.04F
Seattle        PTSUNNY   50  44  80 SE9       30.61R
Charlotte      CLOUDY    71  70  96 SE22G29   29.99F
Dallas DFW     MOSUNNY   70  42  36 SW10      30.12R
Dallas Love    MOSUNNY   68  43  40 SW8       30.13S
Philladelphia  CLOUDY    73  64  73 SE12      30.21F
Wash National  CLOUDY    72  66  81 S6        30.16F
Baltimore      CLOUDY    71  65  81 SE10      30.16F
Miami          PTSUNNY   88  74  63 SE16      30.05F HX  96
Detroit        CLOUDY    65  55  70 SE9       29.81F
Newark         PTSUNNY   74  62  66 S10       30.24F
Laguardia      PTSUNNY   72  60  66 S15       30.25F
J F K          PTSUNNY   72  64  78 SE15      30.27F
Boston Logan   FOG       56  56 100 E7        30.34F VSB<1/4
Ft. Lauderdale PTSUNNY   85  76  74 SE16      30.05F HX  94
Chicago O`Hare LGT RAIN  53  50  89 N7        29.81F
Chicago Midway LGT RAIN  54  52  93 N10       29.80F
Houston Bush   SUNNY     69  47  45 S3        30.16S
Houston Hobby  SUNNY     71  48  43 VRB3      30.16S
Nashville      DRIZZLE   58  54  86 W14G20    29.87S
Atlanta        PTSUNNY   65  64  97 W12       29.91R

$$

GAZ044-118-TXZ119-213-NCZ071-DCZ001-MDZ014-506-PAZ021-071-NJZ106-
NYZ176-178-MAZ106-OHZ011-021-055-MIZ076-KYZ091-ILZ014-INZ047-
MNZ060-ONZ431-231700-

...Gateway Observations for Savannah International...

CITY           SKY/WX    TMP DP  RH WIND       PRES   REMARKS
Savannah Arpt  CLOUDY    81  74  79 S18G28    29.99F
Atlanta        PTSUNNY   65  64  97 W12       29.91R
Charlotte      CLOUDY    71  70  96 SE22G29   29.99F
Dallas DFW     MOSUNNY   70  42  36 SW10      30.12R
Houston Bush   SUNNY     69  47  45 S3        30.16S
Wash National  CLOUDY    72  66  81 S6        30.16F
Wash Dulles    PTSUNNY   69  63  81 SE12      30.15F
Baltimore      CLOUDY    71  65  81 SE10      30.16F
Philadelphia   CLOUDY    73  64  73 SE12      30.21F
Newark         PTSUNNY   74  62  66 S10       30.24F
Laguardia      PTSUNNY   72  60  66 S15       30.25F
J F K          PTSUNNY   72  64  78 SE15      30.27F
Boston         FOG       56  56 100 E7        30.34F VSB<1/4
Pittsburg      CLOUDY    65  59  81 SE13      29.98F
Akron          CLOUDY    66  54  65 SE14      29.91F
Cleveland      CLOUDY    67  54  63 SE18      29.89F
Cincinnati     LGT RAIN  62  62 100 S6        29.78F
Columbus       CLOUDY    62  61  97 SE14      29.82F
Detroit        CLOUDY    65  55  70 SE9       29.81F
Chicago O`Hare LGT RAIN  53  50  89 N7        29.81F
Minneapolis    PTSUNNY   57  42  57 NW9       29.77R
Indianapolis   CLOUDY    63  59  87 S10       29.70F
Toronto Canada PTSUNNY   66  55  68 SE10G18   29.95F

$$




USA.gov is the U.S. government's official web portal to all federal, state and local government web resources and services.